Dauntless Aviation
Airports Europe United Kingdom
EGLC
LCY

London City

London, UNITED KINGDOM

Airport Info
Suggest Updated Information for this Airport

Location

Latitude / Longitude: 51°30'18"N / 0°3'12"E
  51°30.3'N / 0°3.21'E
  51.5050 / 0.0535

Nearby radio navigation aids

LCY CITY NDB on field.

Runway Information

Runway 10 /28

Dimensions: 4948 x 98 ft.
Surface: ASP
 
Runway 10
Runway 28
Latitude: 51.505528 51.504922
Longitude: 0.045753 0.064953
Elevation: 16 ft. 16 ft.
Runway true heading: 91.1 271.1
 

Instrument Procedures

  Aerodrome Chart
  Aircraft Parking/Docking Chart
  Control Zone and Control Area Chart

STARs (Standard Terminal Arrivals)

  Standard Instrument Arrival Coding Tables Rwy 09/27 JACKO 1L/ 1M
  Standard Instrument Arrival Coding Tables Rwy 09/27 GODLU 1G/ 1H
  Standard Instrument Arrival Coding Tables Rwy 09/27 GODLU 1J/ 1K/ 1L
  RNAV1 (DME/DME or GNSS) Transition Arrival Chart - Instrument Rwy 27 LAVNO 1G 1J
  RNAV1 (DME/DME or GNSS) Transition Arrival Chart - Instrument Rwy 09 ODLEG 1G 1J
  RNAV5 (VOR/DME/ DME/DME or GNSS) STAR - Instrument Rwy 09/27 JACKO 1A 1B 1D
  RNAV5 (VOR/DME/ DME/DME or GNSS) STAR - Instrument Rwy 09/27 GODLU 1A 1C 1D 1F
  RNAV5 (VOR/DME/ DME/DME or GNSS) STAR - Instrument Rwy 09/27 JACKO 1H
  RNAV5 (VOR/DME/ DME/DME or GNSS) STAR - Instrument Rwy 09/27 JACKO 1L 1M
  RNAV5 (VOR/DME/ DME/DME or GNSS) STAR - Instrument Rwy 09/27 GODLU 1G 1H
  RNAV5 (VOR/DME/ DME/DME or GNSS) STAR - Instrument Rwy 09/27 GODLU 1J 1K 1L
  Standard Instrument Arrival Coding Tables Rwy 09/27 JACKO 1A/ 1B/ 1D
  Standard Instrument Arrival Coding Tables Rwy 09/27 GODLU 1A/ 1C/ 1D/ 1F
  Standard Instrument Arrival Coding Tables Rwy 09/27 JACKO 1H

IAPs (Instrument Approach Procedures)

  ILS (5.5°GP) /DME/NDB (L) Rwy 09 (Aircraft CAT A/B/C)
  LOC/DME/NDB (L) Rwy 09
  LOC/DME/NDB (L) Rwy 27 (Aircraft CAT A/B/C)
  Visual Approach Profile Rwy 27
  Visual Approach Profile Rwy 09
  ILS (5.5°GP) /DME/NDB (L) Rwy 27 (Aircraft CAT A/B/C)
  Aerodrome Information (Textual)
  Transition Coding Tables Rwy 27 LAVNO 1G/ 1J
  Transition Coding Tables Rwy 09 ODLEG 1G 1J
  RNAV Hold Coding Tables GODLU/ OKVAP/ JACKO/ ROPMU
  ATC Surveillance Minimum Altitude Chart

Departure Procedures

  Standard Instrument Departure Coding Tables Rwy 09 BPK 1H/ CPT 1H
  Standard Instrument Departure Coding Tables Rwy 09 CLN 1H/ Rwy 27 CLN 1A
  SID - Instrument (SID) Rwy 09/27 DVR 5T 5U LYD 5T 5U
  SID - Instrument (SID) Rwy 09/27 CLN 7T 7U
  SID - Instrument (SID) Rwy 09/27 BPK 5T 5U CPT 6T 6U
  RNAV1 (DME/DME or GNSS) SID - Instrument (SID) Rwy 27 BPK 1A CPT 1A
  RNAV1 (DME/DME or GNSS) SID - Instrument (SID) Rwy 09 BPK 1H CPT 1H
  RNAV1 (DME/DME or GNSS) SID - Instrument (SID) Rwy 09/27 CLN 1A 1H
  Standard Instrument Departure Coding Tables Rwy 27 BPK 1A/ CPT 1A
  RNAV1 (DME/DME or GNSS) SID - Instrument (SID) Rwy 09/27 EKNIV 1A 1H
  Standard Instrument Departure Coding Tables Rwy 09 EKNIV 1H/ Rwy 27 EKNIV 1A
Satellite photo at:
Airport distance calculator
From:
Weather Reports

METAR

EGLC

EGLC 191820Z AUTO 25008KT 210V270 9999 OVC018 12/08 Q1022
EGKB
11.4nm S
EGKB 191820Z 24007KT 210V270 9999 BKN015 10/07 Q1022
EGWU
17.8nm W
EGWU 191750Z 25008KT 9999 OVC018 11/07 Q1021 BECMG BKN010
EGLL
18.9nm SW
EGLL 191820Z AUTO 25009KT 9999 OVC017 11/08 Q1022 BECMG BKN012
EGSS
23.5nm N
EGSS 191820Z AUTO 26004KT 9999 OVC018 10/07 Q1021
EGKK
23.8nm S
EGKK 191820Z 23005KT 9999 BKN016 10/07 Q1022

TAF

EGLC
TAF EGLC 191704Z 1918/1922 25008KT 9999 BKN025 BECMG 1918/1921 6000 BKN005 PROB40 TEMPO 1921/1922 3000 -DZ BR BKN003
EGKB
11.4nm S
TAF EGKB 191704Z 1918/1920 27008KT 9999 BKN017 BECMG 1918/1920 BKN008 PROB30 TEMPO 1918/1920 4000 BR
EGWU
17.8nm W
TAF EGWU 191655Z 1918/2012 25008KT 9999 SCT018 BKN025 BECMG 1918/1919 BKN010 BECMG 1919/1921 7000 BR BKN005 TEMPO 1920/2009 3000 -RADZ BKN003 PROB30 TEMPO 1922/2008 2000 -DZ BKN002 BECMG 2010/2012 9999 -RA BKN012
EGLL
18.9nm SW
TAF EGLL 191659Z 1918/2024 25008KT 9999 BKN018 BECMG 1918/1921 BKN005 TEMPO 1918/2012 6000 PROB30 TEMPO 1921/2009 2000 -DZ BR BKN002 BECMG 2009/2012 BKN018 BECMG 2018/2021 BKN010 PROB40 TEMPO 2021/2024 5000 -RADZ BKN006
EGSS
23.5nm N
TAF EGSS 191704Z 1918/2024 25008KT 9999 BKN018 BECMG 1919/1922 6000 BKN005 TEMPO 1920/2009 1200 -DZ BR BKN002 PROB40 TEMPO 1920/2008 0300 FG VV/// PROB30 TEMPO 2003/2007 RADZ BECMG 2009/2012 BKN012 BECMG 2012/2015 9999 SCT012 BKN030 TEMPO 2018/2024 6000 -RADZ BKN009
EGKK
23.8nm S
TAF EGKK 191712Z 1918/2024 26009KT 9999 FEW008 SCT025 TEMPO 1918/1920 8000 BKN008 BECMG 1920/1923 4000 -DZ BR BKN004 PROB30 TEMPO 2000/2008 1200 DZ BKN001 BECMG 2008/2011 7000 NSW BKN012 BECMG 2011/2014 9999 TEMPO 2011/2020 FEW012 SCT040 PROB40 TEMPO 2020/2024 BKN006
Safelog

 

Dauntless Aviation

© 2007-2017 Dauntless Aviation, all rights reserved
Information provided via PilotNav comes from a variety of official and unofficial data sources. As errors are possible, do not use PilotNav for primary flight planning purposes. Verify any information that you receive via PilotNav with current and canonical charts and other official documents. The material in this database is subject to database copyrights held by Dauntless Aviation and may not be copied without the express permission of Dauntless Aviation - licenses for use of part of all of this data are available for purchase; enquire via the Dauntless Aviation helpdesk. A number of mechanisms and markers exist in the database to protect against and identify infringement / copyright. Automated queries against this website are stictly prohibited, and all activity is logged and analyzed.